Time,TemperatureF,DewpointF,PressureIn,WindDirection,WindDirectionDegrees,WindSpeedMPH,WindSpeedGustMPH,Humidity,HourlyPrecipIn,Conditions,Clouds,dailyrainin,SoftwareType,DateUTC
2013-06-02 18:16:00,81.4,76.8,29.91,North,5,0.0,4.0,86,0.00,,,0.00,WUHU216DAVISVP2,2013-06-02 22:16:00,
2013-06-02 18:17:00,81.5,76.9,29.91,NE,42,2.0,4.0,86,0.00,,,0.00,WUHU216DAVISVP2,2013-06-02 22:17:00,
2013-06-02 18:22:00,81.4,76.8,29.91,ESE,115,0.0,5.0,86,0.00,,,0.00,WUHU216DAVISVP2,2013-06-02 22:22:00,
2013-06-02 18:27:00,81.3,76.8,29.91,ESE,113,0.0,5.0,86,0.00,,,0.00,WUHU216DAVISVP2,2013-06-02 22:27:00,
2013-06-02 18:32:00,81.3,76.8,29.91,East,96,0.0,3.0,86,0.00,,,0.00,WUHU216DAVISVP2,2013-06-02 22:32:00,
2013-06-02 18:37:00,81.2,77.0,29.90,East,96,0.0,3.0,87,0.00,,,0.00,WUHU216DAVISVP2,2013-06-02 22:37:00,
2013-06-02 18:42:00,81.3,77.1,29.90,East,93,1.0,1.0,87,0.00,,,0.00,WUHU216DAVISVP2,2013-06-02 22:42:00,
2013-06-02 18:47:00,81.3,76.8,29.90,East,87,0.0,2.0,86,0.00,,,0.00,WUHU216DAVISVP2,2013-06-02 22:47:00,
2013-06-02 18:52:00,81.2,77.0,29.90,ENE,65,0.0,3.0,87,0.00,,,0.00,WUHU216DAVISVP2,2013-06-02 22:52:00,
2013-06-02 18:57:00,81.0,76.8,29.91,East,83,0.0,3.0,87,0.00,,,0.00,WUHU216DAVISVP2,2013-06-02 22:57:00,
2013-06-02 19:02:00,80.8,76.6,29.91,East,83,0.0,3.0,87,0.00,,,0.00,WUHU216DAVISVP2,2013-06-02 23:02:00,
2013-06-02 19:07:00,80.8,76.6,29.91,ENE,71,0.0,4.0,87,0.00,,,0.00,WUHU216DAVISVP2,2013-06-02 23:07:00,
2013-06-02 19:12:00,80.5,76.6,29.90,ENE,75,0.0,4.0,88,0.00,,,0.00,WUHU216DAVISVP2,2013-06-02 23:12:00,
2013-06-02 19:17:00,80.3,76.4,29.91,ENE,78,0.0,4.0,88,0.00,,,0.00,WUHU216DAVISVP2,2013-06-02 23:17:00,
2013-06-02 19:22:00,80.2,76.3,29.91,ENE,72,0.0,4.0,88,0.00,,,0.00,WUHU216DAVISVP2,2013-06-02 23:22:00,
2013-06-02 19:27:00,80.2,76.7,29.91,ENE,73,1.0,3.0,89,0.00,,,0.00,WUHU216DAVISVP2,2013-06-02 23:27:00,
2013-06-02 19:32:00,80.1,76.6,29.91,ENE,73,0.0,2.0,89,0.00,,,0.00,WUHU216DAVISVP2,2013-06-02 23:32:00,
2013-06-02 19:37:00,80.0,76.5,29.92,East,86,0.0,2.0,89,0.00,,,0.00,WUHU216DAVISVP2,2013-06-02 23:37:00,
2013-06-02 19:42:00,79.9,76.4,29.92,ENE,70,0.0,2.0,89,0.00,,,0.00,WUHU216DAVISVP2,2013-06-02 23:42:00,
2013-06-02 19:47:00,79.8,76.6,29.93,ENE,67,0.0,2.0,90,0.00,,,0.00,WUHU216DAVISVP2,2013-06-02 23:47:00,
2013-06-02 19:52:00,79.8,76.6,29.91,NE,47,0.0,3.0,90,0.00,,,0.00,WUHU216DAVISVP2,2013-06-02 23:52:00,
2013-06-02 19:57:00,79.7,76.5,29.91,NE,40,0.0,3.0,90,0.00,,,0.00,WUHU216DAVISVP2,2013-06-02 23:57:00,
2013-06-02 20:02:00,79.7,76.5,29.92,NE,38,0.0,3.0,90,0.00,,,0.00,WUHU216DAVISVP2,2013-06-03 00:02:00,
2013-06-02 20:07:00,79.5,76.3,29.92,ESE,105,0.0,2.0,90,0.00,,,0.00,WUHU216DAVISVP2,2013-06-03 00:07:00,
2013-06-02 20:12:00,79.4,76.2,29.91,ESE,105,0.0,2.0,90,0.00,,,0.00,WUHU216DAVISVP2,2013-06-03 00:12:00,
2013-06-02 20:17:00,79.4,76.2,29.92,ESE,105,0.0,1.0,90,0.00,,,0.00,WUHU216DAVISVP2,2013-06-03 00:17:00,
2013-06-02 20:22:00,79.3,76.1,29.93,ESE,104,0.0,1.0,90,0.00,,,0.00,WUHU216DAVISVP2,2013-06-03 00:22:00,
2013-06-02 20:27:00,79.3,76.4,29.93,ESE,104,0.0,1.0,91,0.00,,,0.00,WUHU216DAVISVP2,2013-06-03 00:27:00,
2013-06-02 20:32:00,79.2,76.3,29.93,ESE,103,0.0,2.0,91,0.00,,,0.00,WUHU216DAVISVP2,2013-06-03 00:32:00,
2013-06-02 20:37:00,79.1,76.2,29.93,WSW,247,0.0,3.0,91,0.00,,,0.00,WUHU216DAVISVP2,2013-06-03 00:37:00,
2013-06-02 20:42:00,79.1,76.2,29.93,SSE,157,0.0,3.0,91,0.00,,,0.00,WUHU216DAVISVP2,2013-06-03 00:42:00,
2013-06-02 20:47:00,79.1,76.2,29.94,ESE,111,0.0,1.0,91,0.00,,,0.00,WUHU216DAVISVP2,2013-06-03 00:47:00,
2013-06-02 20:52:00,79.0,76.1,29.94,East,84,0.0,1.0,91,0.00,,,0.00,WUHU216DAVISVP2,2013-06-03 00:52:00,
2013-06-02 20:57:00,79.0,76.1,29.94,East,85,0.0,1.0,91,0.00,,,0.00,WUHU216DAVISVP2,2013-06-03 00:57:00,
2013-06-02 21:02:00,79.0,76.5,29.95,East,85,0.0,1.0,92,0.00,,,0.00,WUHU216DAVISVP2,2013-06-03 01:02:00,
2013-06-02 21:07:00,79.0,76.5,29.95,East,87,0.0,2.0,92,0.00,,,0.00,WUHU216DAVISVP2,2013-06-03 01:07:00,
2013-06-02 21:12:00,79.0,76.5,29.96,East,87,0.0,2.0,92,0.00,,,0.00,WUHU216DAVISVP2,2013-06-03 01:12:00,
2013-06-02 21:17:00,79.0,76.5,29.96,NNE,31,0.0,2.0,92,0.00,,,0.00,WUHU216DAVISVP2,2013-06-03 01:17:00,
2013-06-02 21:22:00,79.0,76.5,29.96,NNE,31,0.0,2.0,92,0.00,,,0.00,WUHU216DAVISVP2,2013-06-03 01:22:00,
2013-06-02 21:27:00,78.9,76.4,29.95,NNE,31,0.0,1.0,92,0.00,,,0.00,WUHU216DAVISVP2,2013-06-03 01:27:00,
2013-06-02 21:32:00,78.9,76.4,29.96,ESE,115,0.0,1.0,92,0.00,,,0.00,WUHU216DAVISVP2,2013-06-03 01:32:00,
2013-06-02 21:37:00,78.9,76.7,29.96,ESE,115,0.0,1.0,93,0.00,,,0.00,WUHU216DAVISVP2,2013-06-03 01:37:00,
2013-06-02 21:42:00,78.9,76.7,29.96,East,101,0.0,1.0,93,0.00,,,0.00,WUHU216DAVISVP2,2013-06-03 01:42:00,
2013-06-02 21:47:00,78.9,76.7,29.96,WSW,257,0.0,1.0,93,0.00,,,0.00,WUHU216DAVISVP2,2013-06-03 01:47:00,
2013-06-02 21:52:00,78.9,76.7,29.96,NE,42,0.0,1.0,93,0.00,,,0.00,WUHU216DAVISVP2,2013-06-03 01:52:00,
2013-06-02 21:57:00,78.9,76.7,29.96,NNE,33,0.0,1.0,93,0.00,,,0.00,WUHU216DAVISVP2,2013-06-03 01:57:00,
2013-06-02 22:02:00,78.9,76.7,29.96,NNE,33,0.0,1.0,93,0.00,,,0.00,WUHU216DAVISVP2,2013-06-03 02:02:00,
2013-06-02 22:07:00,78.9,76.7,29.96,NNE,33,0.0,1.0,93,0.00,,,0.00,WUHU216DAVISVP2,2013-06-03 02:07:00,
2013-06-02 22:12:00,78.9,76.7,29.96,NE,44,0.0,1.0,93,0.00,,,0.00,WUHU216DAVISVP2,2013-06-03 02:12:00,
2013-06-02 22:17:00,78.9,76.7,29.97,NE,56,0.0,2.0,93,0.00,,,0.00,WUHU216DAVISVP2,2013-06-03 02:17:00,
2013-06-02 22:22:00,78.9,76.7,29.97,NE,56,0.0,2.0,93,0.00,,,0.00,WUHU216DAVISVP2,2013-06-03 02:22:00,
2013-06-02 22:27:00,78.9,76.7,29.96,NE,56,0.0,1.0,93,0.00,,,0.00,WUHU216DAVISVP2,2013-06-03 02:27:00,
2013-06-02 22:32:00,78.9,76.7,29.96,NE,56,0.0,1.0,93,0.00,,,0.00,WUHU216DAVISVP2,2013-06-03 02:32:00,
2013-06-02 22:37:00,78.8,76.6,29.95,NE,56,0.0,1.0,93,0.00,,,0.00,WUHU216DAVISVP2,2013-06-03 02:37:00,
2013-06-02 22:42:00,78.8,76.6,29.95,East,90,0.0,1.0,93,0.00,,,0.00,WUHU216DAVISVP2,2013-06-03 02:42:00,
2013-06-02 22:47:00,78.8,76.6,29.95,East,90,0.0,1.0,93,0.00,,,0.00,WUHU216DAVISVP2,2013-06-03 02:47:00,
2013-06-02 22:52:00,78.8,76.6,29.95,East,90,0.0,1.0,93,0.00,,,0.00,WUHU216DAVISVP2,2013-06-03 02:52:00,
2013-06-02 22:57:00,78.8,76.6,29.95,ENE,78,0.0,1.0,93,0.00,,,0.00,WUHU216DAVISVP2,2013-06-03 02:57:00,
2013-06-02 23:02:00,78.8,76.6,29.95,ENE,78,0.0,1.0,93,0.00,,,0.00,WUHU216DAVISVP2,2013-06-03 03:02:00,
2013-06-02 23:07:00,78.8,76.6,29.94,SSW,213,0.0,2.0,93,0.00,,,0.00,WUHU216DAVISVP2,2013-06-03 03:07:00,
2013-06-02 23:12:00,78.7,76.5,29.95,ESE,102,0.0,2.0,93,0.00,,,0.00,WUHU216DAVISVP2,2013-06-03 03:12:00,
2013-06-02 23:17:00,78.7,76.5,29.94,ESE,102,0.0,1.0,93,0.00,,,0.00,WUHU216DAVISVP2,2013-06-03 03:17:00,
2013-06-02 23:22:00,78.7,76.5,29.94,ESE,102,0.0,1.0,93,0.00,,,0.00,WUHU216DAVISVP2,2013-06-03 03:22:00,
2013-06-02 23:27:00,78.7,76.5,29.93,East,101,0.0,1.0,93,0.00,,,0.00,WUHU216DAVISVP2,2013-06-03 03:27:00,
2013-06-02 23:32:00,78.7,76.5,29.93,East,101,0.0,1.0,93,0.00,,,0.00,WUHU216DAVISVP2,2013-06-03 03:32:00,
2013-06-02 23:37:00,78.7,76.5,29.93,East,99,0.0,1.0,93,0.00,,,0.00,WUHU216DAVISVP2,2013-06-03 03:37:00,
2013-06-02 23:42:00,78.6,76.4,29.93,ENE,78,0.0,1.0,93,0.00,,,0.00,WUHU216DAVISVP2,2013-06-03 03:42:00,
2013-06-02 23:47:00,78.6,76.4,29.93,WSW,246,0.0,2.0,93,0.00,,,0.00,WUHU216DAVISVP2,2013-06-03 03:47:00,
2013-06-02 23:52:00,78.6,76.4,29.93,WSW,246,0.0,2.0,93,0.00,,,0.00,WUHU216DAVISVP2,2013-06-03 03:52:00,
2013-06-02 23:57:00,78.6,76.4,29.93,WSW,246,0.0,1.0,93,0.00,,,0.00,WUHU216DAVISVP2,2013-06-03 03:57:00,